GW3496 Weather Reports


Display with metric or nautical units.
time (UTC)temp
F
wind
direction
speed
MPH
gust
MPH
rain 1hr
in
rain 24hr
in
rain mn
in
humidity
%
barometer
mb
20260905134543 79 17 4.0 9.0 0.00 0.00 0.00 78 1010.1
20260905133043 78 38 3.0 11.0 0.00 0.00 0.00 80 1009.8
20260905131541 77 50 4.0 10.0 0.00 0.00 0.00 82 1010.3
20260905130039 75 336 4.0 8.0 0.00 0.00 0.00 87 1009.9
20260905124543 74 337 1.0 5.0 0.00 0.00 0.00 88 1010.2
20260905123043 73 52 0.0 3.0 0.00 0.00 0.00 89 1009.8
20260905121539 73 47 3.0 5.0 0.00 0.00 0.00 89 1009.6
20260905120042 73 5 0.0 3.0 0.00 0.00 0.00 90 1009.8
20260905114546 72 82 1.0 4.0 0.00 0.00 0.00 91 1009.5
20260905113047 72 67 0.0 0.0 0.00 0.00 0.00 92 1009.5
20260905111607 72 84 0.0 0.0 0.00 0.00 0.00 92 1009.5
20260905110056 72 84 0.0 0.0 0.00 0.00 0.00 92 1008.8
20260905104550 71 350 0.0 0.0 0.00 0.00 0.00 91 1008.7
20260905103049 72 350 0.0 0.0 0.00 0.00 0.00 91 1008.7
20260905101543 72 350 0.0 0.0 0.00 0.00 0.00 91 1008.5
20260905100045 72 355 0.0 0.0 0.00 0.00 0.00 91 1008.6
20260905094539 72 338 1.0 4.0 0.00 0.00 0.00 91 1008.3
20260905093045 72 302 0.0 0.0 0.00 0.00 0.00 91 1008.1
20260905091611 72 324 1.0 4.0 0.00 0.00 0.00 91 1008.1
20260905090116 72 331 2.0 5.0 0.00 0.00 0.00 91 1008.2
20260905084556 72 316 3.0 6.0 0.00 0.00 0.00 91 1008.3
20260905083045 72 295 2.0 5.0 0.00 0.00 0.00 91 1008.5
20260905081542 72 302 2.0 4.0 0.00 0.00 0.00 91 1008.7
20260905080055 72 250 2.0 6.0 0.00 0.00 0.00 91 1008.8
20260905074549 72 336 1.0 5.0 0.00 0.02 0.00 91 1008.9
20260905073051 72 323 2.0 5.0 0.00 0.02 0.00 91 1009.0
20260905071550 72 5 2.0 6.0 0.00 0.02 0.00 90 1009.0
20260905070057 72 304 4.0 10.0 0.00 0.02 0.00 90 1009.3
20260905064550 72 285 2.0 8.0 0.00 0.12 0.00 90 1009.4
20260905063045 73 281 5.0 11.0 0.00 0.12 0.00 90 1009.7
20260905061557 73 302 2.0 10.0 0.00 0.12 0.00 90 1009.7
20260905060116 73 298 6.0 11.0 0.00 0.12 0.00 90 1010.1
20260905054549 73 290 5.0 10.0 0.00 0.47 0.00 89 1010.3
20260905053052 73 259 6.0 9.0 0.00 0.47 0.00 89 1010.3
20260905051558 74 260 5.0 9.0 0.00 0.47 0.00 89 1010.5
20260905050055 74 194 0.0 5.0 0.00 0.47 0.00 89 1010.8
20260905044602 74 127 1.0 5.0 0.00 0.47 0.00 89 1010.8
20260905043529 74 239 4.0 8.0 0.00 0.47 0.00 89 1010.7
20260905041537 74 299 2.0 10.0 0.00 0.47 0.00 88 1010.9
20260905040036 75 271 1.0 4.0 0.00 0.47 0.00 87 1011.1
20260905034547 75 211 0.0 4.0 0.00 0.47 0.47 87 1011.1
20260905033037 75 304 0.0 0.0 0.00 0.47 0.47 86 1011.0
20260905031538 75 231 1.0 6.0 0.00 0.47 0.47 86 1010.9
20260905030039 76 254 2.0 7.0 0.00 0.47 0.47 85 1011.0
20260905024538 76 252 0.0 4.0 0.00 0.47 0.47 85 1011.1
20260905023037 76 259 2.0 4.0 0.00 0.47 0.47 84 1011.3
20260905021534 77 164 0.0 0.0 0.00 0.47 0.47 84 1011.1
20260905020040 76 244 0.0 3.0 0.00 0.47 0.47 84 1011.2
20260905014538 76 211 0.0 4.0 0.00 0.47 0.47 84 1010.7
20260905013039 76 257 2.0 4.0 0.00 0.47 0.47 84 1010.6
20260905011542 76 196 0.0 2.0 0.00 0.47 0.47 84 1010.5
20260905010036 77 263 0.0 0.0 0.00 0.47 0.47 84 1010.2
20260905004547 77 250 0.0 4.0 0.00 0.47 0.47 83 1010.0
20260905003034 77 184 1.0 7.0 0.00 0.47 0.47 83 1009.9
20260905001548 77 193 3.0 7.0 0.00 0.47 0.47 84 1009.7
20260905000040 77 319 2.0 8.0 0.00 0.47 0.47 83 1010.3
20260904234541 78 269 5.0 11.0 0.00 0.47 0.47 82 1010.6
20260904233044 79 229 5.0 12.0 0.00 0.47 0.47 80 1010.5
20260904231545 80 286 1.0 7.0 0.00 0.47 0.47 79 1010.4
20260904230037 80 294 0.0 0.0 0.00 0.47 0.47 79 1010.0
20260904224547 80 182 0.0 6.0 0.00 0.47 0.47 79 1010.1
20260904223055 81 180 4.0 9.0 0.00 0.47 0.47 80 1010.4
20260904221537 81 180 2.0 7.0 0.00 0.47 0.47 80 1010.3
20260904220037 83 244 8.0 14.0 0.00 0.47 0.47 77 1010.8
20260904214541 84 310 4.0 10.0 0.00 0.47 0.47 73 1011.9
20260904213044 85 5 3.0 8.0 0.00 0.47 0.47 69 1011.4
20260904211542 85 56 3.0 12.0 0.00 0.47 0.47 70 1010.8
20260904210056 89 345 2.0 5.0 0.00 0.47 0.47 67 1010.6
20260904204540 89 355 2.0 5.0 0.00 0.47 0.47 66 1010.5
20260904203041 89 334 0.0 6.0 0.00 0.47 0.47 66 1010.8
20260904201543 90 344 2.0 5.0 0.00 0.47 0.47 65 1010.7
20260904200041 91 25 0.0 3.0 0.00 0.47 0.47 61 1009.9
20260904194546 91 11 1.0 8.0 0.00 0.47 0.47 61 1010.8
20260904193052 92 18 3.0 8.0 0.00 0.47 0.47 60 1011.1
20260904191550 92 279 6.0 11.0 0.00 0.47 0.47 59 1011.1
20260904190043 92 312 4.0 8.0 0.00 0.47 0.47 59 1011.1
20260904184540 93 279 3.0 11.0 0.00 0.47 0.47 59 1011.5
20260904183039 92 355 5.0 10.0 0.00 0.47 0.47 59 1011.7
20260904181542 91 279 3.0 9.0 0.00 0.47 0.47 60 1012.0
20260904180042 91 245 5.0 10.0 0.00 0.47 0.47 61 1012.0
20260904174548 91 333 2.0 8.0 0.00 0.47 0.47 60 1012.5
20260904173052 90 40 0.0 5.0 0.00 0.47 0.47 60 1012.8
20260904171541 90 5 2.0 8.0 0.00 0.47 0.47 61 1012.7
20260904170050 89 41 6.0 10.0 0.00 0.47 0.47 61 1012.6
20260904164549 89 22 8.0 13.0 0.00 0.47 0.47 61 1012.9
20260904163050 89 355 5.0 12.0 0.00 0.47 0.47 63 1013.0
20260904161540 88 19 5.0 10.0 0.00 0.47 0.47 63 1013.2
20260904160052 88 360 4.0 9.0 0.00 0.47 0.47 64 1013.2
20260904154539 87 26 6.0 12.0 0.00 0.47 0.47 65 1013.1
20260904153047 87 10 6.0 10.0 0.00 0.47 0.47 66 1013.2
20260904151549 86 298 0.0 6.0 0.00 0.47 0.47 71 1013.2
20260904150053 84 341 0.0 5.0 0.00 0.47 0.47 74 1013.4
20260904144604 84 19 1.0 4.0 0.00 0.47 0.47 76 1013.3
20260904143056 82 40 1.0 5.0 0.00 0.47 0.47 79 1013.4
20260904141545 81 333 2.0 6.0 0.00 0.47 0.47 81 1013.2
20260904140042 80 352 1.0 5.0 0.00 0.47 0.47 83 1013.1